COSMOS 2475 (743) (37869 NORAD) Tracking and Keplerian Element Data

This shows tracking and keplerian element data for the satellite.

Feedback or suggestion? Click here.




ElementValue
Catalog37869
NameCOSMOS 2475 (743)
Epoch Orbit5216
Epoch Day198.75533251
Epoch Year2018
RAAN170.8918
Inclination64.508
Eccentricity0.0023031
Argument of Perigee268.4834
Mean Anonmoly145.8432
Mean Motion2.13102201
Decay Rate6.4E-07
L11 37869U 11064C 18198.75533251 .00000064 00000-0 00000-0 0 9993
L22 37869 64.5080 170.8918 0023031 268.4834 145.8432 2.13102201 52169

Live tracking and technical data element details for COSMOS 2475 (743) (NORAD 37869). COSMOS 2475 (743) can be tracked NOW for your location showing map with azimuth and elevation plus other details from your city location.

Track the satellite on the map from your city or location and see movement details for azimuth, elevation, latitude, longitude, range, height, and movement on the map or in text.







IsCatalogInMostPopularTable: catalog: 37869, numindb: 36
Update: records affected: 1



GetName: 37869 COSMOS 2475 (743)

Hit Count: updated at: Thu, 19 Jul 2018 03:52:42 GMT